• Join FlightAware (Why Join?)
  • Login
  • US Flag 
12:11PM EDT


 

Airport Tracker/Info


-or-


 

Live Flight TrackerFlight Track Log ✈ N682RW ✈ 21-Apr-2013 ✈ CYVR - KDTW

Flight Track Log - Related Links

Times and Time Zones

All times are in EDT time to prevent confusion due to time zone crossing. See the N682RW flight status page for this flight to view local times or setup timezone preferences in your user account.

Time Position Orientation Groundspeed Altitude Reporting Facility
EDT Latitude Longitude Course Direction KTS MPH feet Rate Location/Type
12:15PM 49.1667 -123.2667 90° East 200 230 2,700  Level Vancouver Center
12:16PM 49.1500 -123.3667 256° West 240 276 5,600 3,000 Climbing Vancouver Center
12:17PM 49.0833 -123.3667 180° South 280 322 8,700 2,700 Climbing Vancouver Center
12:18PM 49.0500 -123.2667 117° Southeast 320 368 11,000 1,680 Climbing Vancouver Center
12:19PM 48.9334 -122.1365 90° East  Level FlightAware Approximate
12:19PM 49.0167 -123.1167 109° East 370 426 12,100  Level Vancouver Center
12:20PM 48.9333 -121.9412 90° East  Level FlightAware Approximate
12:20PM 48.9833 -122.9667 109° East 370 426 12,800  Level Vancouver Center
12:21PM 48.9500 -122.8000 107° East 390 449 14,900 2,100 Climbing Vancouver Center
12:22PM 48.9333 -122.6333 99° East 420 483 17,100 2,040 Climbing Vancouver Center
12:23PM 48.9333 -122.4500 90° East 440 506 19,000 2,100 Climbing Vancouver Center
12:24PM 48.9333 -122.2500 90° East 460 529 21,400 2,040 Climbing Vancouver Center
12:25PM 48.9333 -122.0500 90° East 470 541 23,100 1,620 Climbing Vancouver Center
12:26PM 48.9333 -121.8500 90° East 490 564 24,700 1,560 Climbing Vancouver Center
12:27PM 48.9333 -121.6167 90° East 510 587 26,300 1,440 Climbing Vancouver Center
12:28PM 48.9500 -121.4167 83° East 520 598 27,600 1,500 Climbing Vancouver Center
12:29PM 48.9333 -121.1833 96° East 520 598 29,300 1,500 Climbing Vancouver Center
12:30PM 48.9500 -120.9833 83° East 520 598 30,600 1,320 Climbing Vancouver Center
12:31PM 48.9833 -120.7500 78° East 510 587 32,000 1,200 Climbing Vancouver Center
12:32PM 48.9833 -120.5500 90° East 490 564 33,000 480 Climbing Vancouver Center
12:33PM 49.0167 -120.3333 77° East 500 575 33,000  Level Vancouver Center
12:34PM 49.0333 -120.1000 84° East 510 587 33,000  Level Vancouver Center
12:35PM 49.0333 -119.9000 90° East 510 587 33,000  Level Vancouver Center
12:36PM 49.0667 -119.6667 78° East 510 587 33,000  Level Vancouver Center
12:37PM 49.0667 -119.4667 90° East 510 587 33,000  Level Vancouver Center
12:38PM 49.1000 -119.2333 78° East 510 587 33,000  Level Vancouver Center
12:39PM 49.1000 -119.0333 90° East 510 587 33,000  Level Vancouver Center
12:40PM 49.1167 -118.8167 83° East 510 587 33,000  Level Vancouver Center
12:41PM 49.1333 -118.6167 83° East 510 587 33,000  Level Vancouver Center
12:42PM 49.1500 -118.3833 84° East 510 587 33,000  Level Vancouver Center
12:43PM 49.1500 -118.1833 90° East 510 587 33,000  Level Vancouver Center
12:44PM 49.1667 -117.9667 83° East 500 575 33,000  Level Vancouver Center
12:45PM 49.1833 -117.7500 83° East 510 587 33,000  Level Vancouver Center
12:46PM 49.2000 -117.5333 83° East 510 587 33,000  Level Vancouver Center
12:47PM 49.2000 -117.3333 90° East 510 587 33,000  Level Vancouver Center
12:48PM 49.2000 -117.1000 90° East 510 587 33,000  Level Vancouver Center
12:49PM 49.2333 -116.8833 77° East 510 587 33,000  Level Vancouver Center
12:50PM 49.2333 -116.6667 90° East 510 587 33,000  Level Vancouver Center
12:50PM 49.2333 -116.6000 90° East 510 587 33,000  Level Edmonton Center
12:51PM 49.2333 -116.3667 90° East 500 575 33,000  Level Edmonton Center
12:52PM 49.2500 -116.2500 78° East 510 587 33,000  Level Vancouver Center
12:53PM 49.2500 -116.0167 90° East 510 587 33,000  Level Vancouver Center
12:54PM 49.2333 -115.8167 97° East 510 587 33,000  Level Vancouver Center
12:54PM 49.2167 -115.7333 107° East 520 598 33,000  Level Edmonton Center
12:55PM 49.2333 -115.5833 80° East 520 598 33,000  Level Vancouver Center
12:56PM 49.2167 -115.3833 97° East 520 598 33,000  Level Vancouver Center
12:56PM 49.2000 -115.2833 104° East 520 598 33,000  Level Edmonton Center
12:57PM 49.1667 -115.0667 103° East 510 587 33,000  Level Edmonton Center
12:58PM 49.1500 -114.8667 97° East 510 587 33,000  Level Edmonton Center
12:59PM 49.1333 -114.6333 96° East 510 587 33,000  Level Edmonton Center
01:00PM 49.1167 -114.4167 97° East 510 587 33,000  Level Edmonton Center
01:01PM 49.1000 -114.2000 97° East 510 587 33,000  Level Edmonton Center
01:02PM 49.0667 -114.0000 104° East 520 598 33,000  Level Edmonton Center
01:03PM 49.0500 -113.7833 97° East 520 598 33,000  Level Edmonton Center
01:04PM 49.0333 -113.5500 96° East 510 587 33,000  Level Edmonton Center
01:05PM 49.0167 -113.3333 97° East 520 598 33,000  Level Edmonton Center
01:06PM 49.0425 -113.2006 73° East 518 596 33,000  Level Salt Lake Center
01:07PM 49.0208 -112.9839 99° East 519 597 33,000  Level Salt Lake Center
01:07PM 48.9667 -112.9000 135° Southeast 510 587 33,000  Level Edmonton Center
01:08PM 48.9500 -112.6833 97° East 510 587 33,000  Level Edmonton Center
01:09PM 48.9333 -112.4833 97° East 510 587 33,000  Level Edmonton Center
01:10PM 48.9167 -112.2333 96° East 510 587 33,000  Level Edmonton Center
01:11PM 48.9000 -112.0667 99° East 510 587 33,000  Level Edmonton Center
01:12PM 48.8667 -111.8167 101° East 510 587 33,000  Level Edmonton Center
01:13PM 48.8844 -111.6669 80° East 519 597 33,000  Level Salt Lake Center
01:14PM 48.8611 -111.4544 99° East 515 593 33,000  Level Salt Lake Center
01:15PM 48.8358 -111.2394 100° East 515 593 33,000  Level Salt Lake Center
01:16PM 48.8122 -111.0239 99° East 516 594 33,000  Level Salt Lake Center
01:17PM 48.7875 -110.8103 100° East 516 594 33,000  Level Salt Lake Center
01:18PM 48.7569 -110.5508 100° East 519 597 33,000  Level Salt Lake Center
01:19PM 48.7303 -110.3375 101° East 518 596 33,000  Level Salt Lake Center
01:20PM 48.7047 -110.1236 100° East 517 595 33,000  Level Salt Lake Center
01:21PM 48.6786 -109.9117 100° East 515 593 33,000  Level Salt Lake Center
01:22PM 48.6514 -109.6992 101° East 515 593 33,000  Level Salt Lake Center
01:23PM 48.6244 -109.4878 101° East 514 592 33,000  Level Salt Lake Center
01:25PM 48.5983 -109.2764 101° East 513 590 33,000  Level Salt Lake Center
01:26PM 48.5711 -109.0642 101° East 514 592 33,000  Level Salt Lake Center
01:27PM 48.5406 -108.8506 102° East 517 595 33,000  Level Salt Lake Center
01:28PM 48.5042 -108.5956 102° East 519 597 33,000 -60 Level Salt Lake Center
01:29PM 48.4750 -108.3867 102° East 514 592 32,900  Descending Salt Lake Center
01:30PM 48.4469 -108.1781 101° East 510 587 33,000  Climbing Salt Lake Center
01:31PM 48.4161 -107.9694 102° East 511 588 33,000  Level Salt Lake Center
01:32PM 48.3869 -107.7589 102° East 514 592 33,000  Level Salt Lake Center
01:33PM 48.3567 -107.5508 102° East 512 589 33,000  Level Salt Lake Center
01:34PM 48.3194 -107.3158 103° East 513 590 33,000  Level Salt Lake Center
01:35PM 48.2892 -107.1081 102° East 512 589 33,000  Level Salt Lake Center
01:36PM 48.2572 -106.9033 103° East 507 583 33,000  Level Salt Lake Center
01:37PM 48.2256 -106.6986 103° East 506 582 33,000  Level Salt Lake Center
01:38PM 48.1986 -106.4914 101° East 508 585 33,000  Level Salt Lake Center
01:39PM 48.1775 -106.2831 99° East 508 585 33,000  Level Salt Lake Center
01:40PM 48.1550 -106.0758 99° East 506 582 33,000  Level Salt Lake Center
01:41PM 48.1289 -105.8272 99° East 505 581 33,000  Level Salt Lake Center
01:42PM 48.1056 -105.6206 100° East 505 581 33,000  Level Salt Lake Center
01:43PM 48.0833 -105.4133 99° East 506 582 33,000  Level Salt Lake Center
01:44PM 48.0592 -105.2072 100° East 506 582 33,000  Level Salt Lake Center
01:45PM 48.0356 -105.0003 100° East 506 582 33,000 -60 Level Salt Lake Center
01:46PM 48.0106 -104.7953 100° East 504 580 32,900  Descending Salt Lake Center
01:47PM 47.9878 -104.5908 99° East 502 578 33,000  Climbing Salt Lake Center
01:48PM 47.9553 -104.3475 101° East 501 577 33,000  Level Salt Lake Center
01:49PM 47.9294 -104.1467 101° East 498 573 33,000  Level Salt Lake Center
01:50PM 47.9044 -103.9433 100° East 495 570 33,000  Level Salt Lake Center
01:51PM 47.8786 -103.7403 101° East 494 568 33,000  Level Salt Lake Center
01:52PM 47.8517 -103.5386 101° East 491 565 33,000  Level Salt Lake Center
01:53PM 47.8247 -103.3367 101° East 492 566 33,000  Level Salt Lake Center
01:54PM 47.7986 -103.1389 101° East 489 563 33,000 180 Level Salt Lake Center
01:55PM 47.7728 -102.9417 101° East 488 562 33,400 660 Climbing Salt Lake Center
01:56PM 47.7447 -102.7469 102° East 484 557 34,400 780 Climbing Minneapolis Center
01:57PM 47.7189 -102.5533 101° East 479 551 35,000 240 Climbing Minneapolis Center
01:58PM 47.6914 -102.3558 102° East 485 558 34,900  Descending Minneapolis Center
01:59PM 47.6603 -102.1581 103° East 490 564 35,000  Climbing Minneapolis Center
02:00PM 47.6283 -101.9217 101° East 489 563 35,000  Level Minneapolis Center
02:01PM 47.5986 -101.7236 102° East 490 564 35,000  Level Minneapolis Center
02:02PM 47.5706 -101.5297 102° East 485 558 35,000  Level Minneapolis Center
02:03PM 47.5411 -101.3333 102° East 487 560 35,000  Level Minneapolis Center
02:05PM 47.5136 -101.1408 102° East 482 555 35,000  Level Minneapolis Center
02:06PM 47.4825 -100.9403 103° East 478 550 35,000  Level Minneapolis Center
02:07PM 47.4525 -100.7506 103° East 477 549 35,000  Level Minneapolis Center
02:08PM 47.4214 -100.5600 103° East 478 550 35,000  Level Minneapolis Center
02:09PM 47.3872 -100.3692 105° East 482 555 35,000  Level Minneapolis Center
02:10PM 47.3508 -100.1450 103° East 473 544 35,000  Level Minneapolis Center
02:11PM 47.3194 -99.9564 104° East 474 545 35,000  Level Minneapolis Center
02:12PM 47.2875 -99.7667 104° East 478 550 35,000  Level Minneapolis Center
02:13PM 47.2544 -99.5772 104° East 480 552 35,000 -60 Level Minneapolis Center
02:14PM 47.2228 -99.3894 104° East 477 549 34,900  Descending Minneapolis Center
02:15PM 47.1903 -99.2008 104° East 476 548 35,000  Climbing Minneapolis Center
02:16PM 47.1569 -99.0131 105° East 479 551 35,000  Level Minneapolis Center
02:17PM 47.1178 -98.7881 104° East 477 549 35,000  Level Minneapolis Center
02:18PM 47.0847 -98.6042 105° East 473 544 35,000  Level Minneapolis Center
02:19PM 47.0514 -98.4211 105° East 471 542 35,000  Level Minneapolis Center
02:20PM 47.0186 -98.2406 105° East 466 536 35,000  Level Minneapolis Center
02:21PM 46.9850 -98.0567 105° East 469 540 35,000  Level Minneapolis Center
02:22PM 46.9519 -97.8747 105° East 469 540 35,000  Level Minneapolis Center
02:23PM 46.9103 -97.6572 106° East 468 539 35,000  Level Minneapolis Center
02:24PM 46.8756 -97.4742 105° East 471 542 35,000  Level Minneapolis Center
02:25PM 46.8389 -97.2908 106° East 472 543 35,000  Level Minneapolis Center
02:26PM 46.8044 -97.1089 105° East 469 540 35,000  Level Minneapolis Center
02:27PM 46.7622 -96.8908 106° East 469 540 35,000  Level Minneapolis Center
02:28PM 46.7003 -96.7278 119° Southeast 464 534 35,000  Level Minneapolis Center
02:29PM 46.6183 -96.5422 123° Southeast 458 527 35,000  Level Minneapolis Center
02:30PM 46.5494 -96.3853 123° Southeast 460 529 35,000  Level Minneapolis Center
02:31PM 46.4789 -96.2286 123° Southeast 464 534 35,000  Level Minneapolis Center
02:32PM 46.4111 -96.0725 122° Southeast 462 532 35,000  Level Minneapolis Center
02:33PM 46.3400 -95.9172 124° Southeast 463 533 35,000  Level Minneapolis Center
02:35PM 46.2653 -95.7469 122° Southeast 462 532 35,000  Level Minneapolis Center
02:36PM 46.1947 -95.5925 123° Southeast 460 529 35,000  Level Minneapolis Center
02:37PM 46.1242 -95.4389 123° Southeast 459 528 35,000  Level Minneapolis Center
02:38PM 46.0542 -95.2847 123° Southeast 460 529 35,000  Level Minneapolis Center
02:39PM 45.9692 -95.1000 123° Southeast 462 532 35,000  Level Minneapolis Center
02:40PM 45.9075 -94.9672 124° Southeast 459 528 35,000  Level Minneapolis Center
02:41PM 45.8358 -94.8133 124° Southeast 463 533 35,000  Level Minneapolis Center
02:42PM 45.7508 -94.6292 123° Southeast 464 534 35,000  Level Minneapolis Center
02:43PM 45.6786 -94.4786 124° Southeast 463 533 35,000  Level Minneapolis Center
02:44PM 45.6067 -94.3275 124° Southeast 461 531 35,000  Level Minneapolis Center
02:45PM 45.5342 -94.1756 124° Southeast 464 534 35,000  Level Minneapolis Center
02:46PM 45.4622 -94.0253 124° Southeast 461 531 35,000  Level Minneapolis Center
02:47PM 45.3903 -93.8747 124° Southeast 462 532 35,000  Level Minneapolis Center
02:48PM 45.3178 -93.7253 125° Southeast 460 529 35,000  Level Minneapolis Center
02:49PM 45.2308 -93.5461 125° Southeast 461 531 35,000  Level Minneapolis Center
02:50PM 45.1575 -93.3967 125° Southeast 461 531 35,000  Level Minneapolis Center
02:51PM 45.0869 -93.2439 123° Southeast 465 535 35,000  Level Minneapolis Center
02:52PM 45.0289 -93.0744 116° Southeast 475 547 35,000  Level Minneapolis Center
02:53PM 44.9686 -92.9094 117° Southeast 469 540 35,000  Level Minneapolis Center
02:54PM 44.9342 -92.7272 105° East 479 551 35,000  Level Minneapolis Center
02:55PM 44.8986 -92.5447 105° East 481 554 35,000  Level Minneapolis Center
02:56PM 44.8631 -92.3650 106° East 479 551 35,000  Level Minneapolis Center
02:57PM 44.8272 -92.1839 106° East 479 551 35,000  Level Minneapolis Center
02:58PM 44.7844 -91.9703 106° East 476 548 35,000  Level Minneapolis Center
02:59PM 44.7475 -91.7906 106° East 478 550 35,000  Level Minneapolis Center
03:00PM 44.7111 -91.6111 106° East 479 551 35,000  Level Minneapolis Center
03:01PM 44.6742 -91.4325 106° East 479 551 35,000  Level Minneapolis Center
03:02PM 44.6369 -91.2539 106° East 479 551 35,000  Level Minneapolis Center
03:03PM 44.5992 -91.0775 107° East 476 548 35,000  Level Minneapolis Center
03:04PM 44.5572 -90.8803 107° East 476 548 35,000  Level Minneapolis Center
03:05PM 44.5183 -90.7028 107° East 475 547 35,000  Level Minneapolis Center
03:06PM 44.4803 -90.5250 107° East 478 550 35,000  Level Minneapolis Center
03:08PM 44.4303 -90.2897 106° East 474 545 35,000  Level Minneapolis Center
03:09PM 44.3906 -90.1119 107° East 475 547 35,000  Level Minneapolis Center
03:10PM 44.3508 -89.9356 107° East 476 548 35,000  Level Minneapolis Center
03:11PM 44.3117 -89.7583 107° East 476 548 35,000  Level Minneapolis Center
03:12PM 44.2714 -89.5822 108° East 475 547 35,000  Level Minneapolis Center
03:13PM 44.2317 -89.4083 108° East 472 543 35,000  Level Minneapolis Center
03:14PM 44.1906 -89.2311 108° East 477 549 35,000  Level Minneapolis Center
03:15PM 44.1569 -89.0828 107° East 479 551 35,000  Level Minneapolis Center
03:16PM 44.1083 -88.8761 108° East 480 552 35,000  Level Minneapolis Center
03:17PM 44.0597 -88.6697 108° East 479 551 35,000  Level Minneapolis Center
03:18PM 44.0169 -88.4931 109° East 480 552 35,000  Level Minneapolis Center
03:19PM 43.9747 -88.3156 108° East 481 554 35,000  Level Minneapolis Center
03:20PM 43.9319 -88.1389 109° East 480 552 35,000  Level Minneapolis Center
03:21PM 43.8894 -87.9642 109° East 476 548 35,000  Level Minneapolis Center
03:22PM 43.8458 -87.7889 109° East 478 550 35,000 -360 Level Minneapolis Center
03:23PM 43.8025 -87.6128 109° East 480 552 34,300 -780 Descending Minneapolis Center
03:24PM 43.7664 -87.4664 109° East 481 554 33,600 -720 Descending Chicago Center
03:25PM 43.7292 -87.3181 109° East 481 554 33,000 -360 Descending Chicago Center
03:25PM 43.6928 -87.1792 110° East 479 551 33,000  Level Chicago Center
03:26PM 43.6678 -87.0744 108° East 479 551 33,000  Level Minneapolis Center
03:27PM 43.6233 -86.9022 110° East 478 550 33,000 -360 Level Minneapolis Center
03:27PM 43.6081 -86.8317 107° East 481 554 32,500 -2,040 Descending Chicago Center
03:28PM 43.5714 -86.6536 106° East 481 554 30,100 -2,160 Descending Chicago Center
03:29PM 43.5483 -86.5442 106° East 485 558 29,000 -1,560 Descending Minneapolis Center
03:30PM 43.5092 -86.3661 107° East 485 558 27,600 -1,320 Descending Minneapolis Center
03:31PM 43.4931 -86.2933 107° East 483 556 27,100 -1,440 Descending Chicago Center
03:32PM 43.4539 -86.1239 108° East 476 548 25,500 -1,320 Descending Chicago Center
03:33PM 43.4081 -85.9150 107° East 473 544 24,400 -900 Descending Chicago Center
03:33PM 43.3917 -85.8442 108° East 474 545 24,100 -720 Descending Minneapolis Center
03:34PM 43.3686 -85.7433 107° East 468 539 23,700 -660 Descending Chicago Center
03:35PM 43.3300 -85.5717 107° East 465 535 23,100 -360 Descending Chicago Center
03:36PM 43.2903 -85.4044 108° East 462 532 23,000 -60 Descending Chicago Center
03:37PM 43.2575 -85.2647 108° East 477 549 23,000  Level Cleveland Center
03:38PM 43.2244 -85.0994 105° East 459 528 23,000  Level Cleveland Center
03:39PM 43.1933 -84.9292 104° East 459 528 23,000  Level Cleveland Center
03:40PM 43.1600 -84.7589 105° East 459 528 23,000 -720 Level Cleveland Center
03:41PM 43.1158 -84.5967 110° East 459 528 21,600 -1,860 Descending Cleveland Center
03:41PM 43.0972 -84.5347 112° Southeast 459 528 20,600 -2,640 Descending Chicago Center
03:42PM 43.0481 -84.3833 114° Southeast 438 504 18,100 -2,040 Descending Chicago Center
03:43PM 43.0175 -84.2947 115° Southeast 430 495 17,200 -2,520 Descending Cleveland Center
03:43PM 42.9775 -84.1703 114° Southeast 413 475 14,600 -2,820 Descending Cleveland Center
03:44PM 42.9697 -84.1528 121° Southeast 424 488 14,400 -1,440 Descending Cleveland Center
03:45PM 42.9281 -84.0200 113° Southeast 410 472 12,800 -1,140 Descending Cleveland Center
03:46PM 42.8858 -83.8931 114° Southeast 310 357 12,200 -420 Descending Cleveland Center
03:47PM 42.8550 -83.7978 114° Southeast 326 375 12,000 -240 Descending Cleveland Center
03:48PM 42.7931 -83.7042 132° Southeast 305 351 11,800 -540 Descending Cleveland Center
03:49PM 42.7272 -83.6725 161° South 278 320 11,000 -1,200 Descending Cleveland Center
03:50PM 42.6483 -83.6242 156° South 285 328 9,500 -1,500 Descending FAA TRACON SMA TRACON (SMA)
03:50PM 42.6269 -83.6097 154° Southeast 279 321 9,100 -1,440 Descending FAA TRACON SMA TRACON (SMA)
03:51PM 42.6008 -83.5481 120° Southeast 274 315 8,100 -1,500 Descending FAA TRACON SMA TRACON (SMA)
03:51PM 42.5914 -83.5192 114° Southeast 270 311 7,600 -1,320 Descending FAA TRACON SMA TRACON (SMA)
03:51PM 42.5783 -83.4939 125° Southeast 259 298 7,200 -1,500 Descending FAA TRACON SMA TRACON (SMA)
03:52PM 42.5592 -83.4661 133° Southeast 263 303 6,600 -1,200 Descending FAA TRACON SMA TRACON (SMA)
03:52PM 42.5433 -83.4439 134° Southeast 264 304 6,400 -600 Descending FAA TRACON SMA TRACON (SMA)
03:52PM 42.5281 -83.4211 132° Southeast 263 303 6,200 -480 Descending FAA TRACON SMA TRACON (SMA)
03:53PM 42.5128 -83.3992 133° Southeast 259 298 6,100 -360 Descending FAA TRACON SMA TRACON (SMA)
03:53PM 42.4947 -83.3742 134° Southeast 230 265 6,000 -660 Descending FAA TRACON SMA TRACON (SMA)
03:53PM 42.4817 -83.3564 135° Southeast 212 244 5,700 -1,080 Descending FAA TRACON SMA TRACON (SMA)
03:54PM 42.4694 -83.3383 133° Southeast 210 242 5,300 -1,380 Descending FAA TRACON SMA TRACON (SMA)
03:54PM 42.4519 -83.3186 140° Southeast 212 244 4,800 -1,380 Descending FAA TRACON SMA TRACON (SMA)
03:54PM 42.4356 -83.3094 158° South 209 241 4,400 -1,200 Descending FAA TRACON SMA TRACON (SMA)
03:55PM 42.4178 -83.3064 173° South 191 220 4,000 -540 Descending FAA TRACON SMA TRACON (SMA)
03:55PM 42.3750 -83.3014 175° South 206 237 3,900 -240 Descending FAA TRACON SMA TRACON (SMA)
03:56PM 42.3608 -83.3003 177° South 175 201 3,800 -900 Descending FAA TRACON SMA TRACON (SMA)
03:56PM 42.3431 -83.2983 175° South 177 204 3,300 -1,380 Descending FAA TRACON SMA TRACON (SMA)
03:56PM 42.3256 -83.2989 181° South 176 203 2,900 -1,080 Descending FAA TRACON SMA TRACON (SMA)
03:57PM 42.3125 -83.3044 197° South 175 201 2,600 -780 Descending FAA TRACON SMA TRACON (SMA)
03:57PM 42.2953 -83.3158 206° Southwest 179 206 2,400 -480 Descending FAA TRACON SMA TRACON (SMA)
03:57PM 42.2828 -83.3247 208° Southwest 181 208 2,300 -780 Descending FAA TRACON SMA TRACON (SMA)
03:58PM 42.2675 -83.3361 209° Southwest 165 190 1,900 -1,200 Descending FAA TRACON SMA TRACON (SMA)
03:58PM 42.2550 -83.3453 208° Southwest 146 168 1,500 -1,080 Descending FAA TRACON SMA TRACON (SMA)
03:58PM 42.2444 -83.3528 208° Southwest 144 166 1,200 -900 Descending FAA TRACON SMA TRACON (SMA)
03:59PM 42.2322 -83.3619 209° Southwest 140 161 900 -780 Descending FAA TRACON SMA TRACON (SMA)
03:59PM 42.2225 -83.3692 209° Southwest 137 158 700 -300 Descending FAA TRACON SMA TRACON (SMA)
03:59PM 42.2136 -83.3756 208° Southwest 67 77 700  Level FAA TRACON SMA TRACON (SMA)
04:00PM 42.2136 -83.3756 71° East 67 77 700  Level FAA TRACON SMA TRACON (SMA)